Location: Arcizac
(43.0933°N, 0.0112°E)
Time: 21:14:57
(UTC+00:00)

Cosmos 1943 - Pass Details

Date: 14 December 2019
Orbit: 835 x 848 km, 71.0° (Epoch: 17 January)

Event Time Altitude Azimuth Distance (km) Brightness Sun altitude
Rises 17:48:02 0° 170° (S) 3,381 6.5 -14.5°
Reaches altitude 10° 17:50:47 10° 159° (SSE) 2,449 5.6 -15.0°
Maximum altitude 17:55:26 27° 103° (ESE) 1,554 4.1 -15.8°
Enters shadow 17:56:45 25° 80° (E) 1,647 4.1 -16.0°
